Location: Newark
(41.8083°N, 72.2500°W)
Time: 10:24:32
(UTC+00:00)

Explorer 11/Cluster Stage 4 - Pass Details

Date: 13 December 2021
Orbit: 467 x 1255 km, 28.8° (Epoch: 23 January)

Event Time Altitude Azimuth Distance (km) Brightness Sun altitude
Rises 04:57:53 0° 240° (WSW) 2,706 - -71.1°
Reaches altitude 10° 05:00:40 10° 218° (SW) 1,925 - -71.0°
Maximum altitude 05:03:31 17° 178° (S) 1,655 - -70.9°
Drops below altitude 10° 05:06:43 10° 139° (SE) 2,211 - -70.7°
Sets 05:10:15 0° 120° (ESE) 3,319 - -70.5°
